Regional Weather Roundup
Issued by NWS

Home | Current Version | Previous Version | Graphics & Text | Print | Product List | Glossary On
Versions: 1 2 3 4 5 6 7 8 9 10 11 12 13 14 15 16 17 18 19 20 21 22 23 24 25 26 27 28 29 30 31 32 33 34 35 36 37 38 39 40 41 42 43 44 45 46 47 48 49 50
000
ASUS43 KDMX 260508
RWRIA

WEATHER ROUNDUP FOR IOWA
NATIONAL WEATHER SERVICE DES MOINES IA
1200 AM CDT THU MAY 26 2016

NOTE: "FAIR" INDICATES FEW OR NO CLOUDS BELOW 12,000 FEET WITH NO
SIGNIFICANT WEATHER AND/OR OBSTRUCTIONS TO VISIBILITY.

* - THESE STATIONS ARE NOT NWS STATIONS...THUS NOT UNDER NWS
QUALITY CONTROL.  THEY ALSO DO NOT REPORT WEATHER SUCH
AS PRECIPITATION OR FOG.

IAZ001>003-012>014-020>022-031>034-043>046-260600-
   NORTHWEST IOWA

CITY           SKY/WX    TMP DP  RH WIND       PRES   REMARKS
CARROLL *      CLOUDY    68  66  94 CALM      29.85S
CHEROKEE *     CLOUDY    68  66  94 CALM      29.84R
DENISON *      PTCLDY    68  66  94 CALM      29.82F
LE MARS *      RAIN      63  59  88 NE13      29.85F
ORANGE CITY *  HVY RAIN  57  55  94 NW15G25   29.86R
SHELDON *      RAIN      57  55  94 NW30G56   29.90R
SIOUX CITY     CLOUDY    70  58  65 NW12      29.84R
SPENCER        MOCLDY    68  61  78 S5        29.83S
STORM LAKE *   CLEAR     66  63  88 S10       29.84F
$$

IAZ055>058-069>071-079>083-090>094-260600-
   SOUTHWEST IOWA

CITY           SKY/WX    TMP DP  RH WIND       PRES   REMARKS
ATLANTIC *     CLOUDY    70  66  88 CALM      29.85S
AUDUBON *      PTCLDY    66  63  88 CALM      29.86F
CLARINDA *       N/A     70  66  88 MISG      29.86R
COUNCIL BLFS * MOCLDY    70  68  94 CALM      29.84F
CRESTON *      CLEAR     70  66  88 SE6       29.87F
HARLAN  *      MOCLDY    68  66  94 CALM      29.88S
LAMONI         CLOUDY    71  65  81 S5        29.86F
RED OAK *      MOCLDY    68  66  94 CALM      29.84S
SHENANDOAH *   MOCLDY    72  68  88 SE7       29.83S
$$

IAZ047>049-059>061-072>074-084-260600-
   CENTRAL IOWA

CITY           SKY/WX    TMP DP  RH WIND       PRES   REMARKS
AMES           MOCLDY    68  64  87 S5        29.86S
ANKENY *       CLOUDY    72  68  88 CALM      29.86S
BOONE *        CLOUDY    70  66  88 S6        29.86R
CHARITON *     MOCLDY    72  64  78 SE6       29.86F
DES MOINES     CLOUDY    74  65  73 S5        29.86R
GRINNELL*      CLOUDY    72  64  78 SE3       29.89R
KNOXVILLE *    CLOUDY    73  64  73 SE5       29.86S
MARSHALLTOWN   CLOUDY    71  62  73 S3        29.87R
NEWTON *       CLOUDY    72  68  88 CALM      29.87R
PELLA *        CLOUDY    72  64  78 CALM      29.89R
PERRY *        CLOUDY    70  68  94 SE3       29.86S
$$

IAZ004>006-015-016-023>025-035-036-260600-
   NORTH CENTRAL IOWA

CITY           SKY/WX    TMP DP  RH WIND       PRES   REMARKS
ALGONA *       MOCLDY    70  64  83 S8        29.85S
CLARION *      PTCLDY    68  64  88 S9        29.85F
ESTHERVILLE    CLOUDY    65  61  87 S8        29.82S
FORT DODGE *   PTCLDY    70  61  73 S7        29.85F
MASON CITY     MOCLDY    65  64  97 S6        29.87R
FOREST CITY *  CLOUDY    64  63  94 CALM      29.86R
WEBSTER CITY * MOCLDY    68  64  88 SE8       29.84S
IOWA FALLS *   CLOUDY    72  63  73 S8        29.88R
$$

IAZ007>011-017>019-026>030-037>042-050>054-066-260600-
   NORTHEAST IOWA

CITY           SKY/WX    TMP DP  RH WIND       PRES   REMARKS
CEDAR RAPIDS   CLOUDY    70  62  76 SE3       29.88S
CHARLES CITY * CLEAR     68  63  83 S6        29.87S
DECORAH *      MOCLDY    68  63  83 S5        29.87S
DUBUQUE        PTCLDY    68  58  70 SW5       29.90S
MONTICELLO *   MOCLDY    70  59  68 CALM      29.89S
OELWEIN *      PTCLDY    68  61  77 S6        29.88F
WATERLOO       CLOUDY    70  59  68 SE5       29.86S
$$

IAZ064-065-067-068-078-260600-
   EAST CENTRAL IOWA

CITY           SKY/WX    TMP DP  RH WIND       PRES   REMARKS
DAVENPORT      CLEAR     69  59  70 S7        29.90F
IOWA CITY      CLOUDY    71  61  70 CALM      29.89F
MT. PLEASANT * CLOUDY    75  64  69 S7        29.90S
MUSCATINE *    MOCLDY    72  64  78 S3        29.89S
QUAD CITIES    PTCLDY    73  61  65 S7        29.89S
$$

IAZ062-063-075>077-085>089-095>099-260600-
   SOUTHEAST IOWA

CITY           SKY/WX    TMP DP  RH WIND       PRES   REMARKS
BURLINGTON     MOCLDY    71  65  81 S8        29.90S
FAIRFIELD *      N/A    N/A N/A N/A MISG        N/A
FORT MADISON * PTCLDY    72  64  78 S7        29.92S
KEOKUK *       CLEAR     73  64  73 S7        29.90S
OSKALOOSA *    CLOUDY    73  63  68 S6        29.89R
OTTUMWA        CLOUDY    74  63  68 S7        29.88R
WASHINGTON *   CLOUDY    73  70  88 S7        29.90S
$$

ABBREVIATIONS USED IN REMARKS
   TC - TEMPERATURES IN CELSIUS
  WCI - WIND CHILL INDEX
   HX - HEAT INDEX
  VSB - VISIBILITY
$$





USA.gov is the U.S. government's official web portal to all federal, state and local government web resources and services.